Olney-Noble, IL

10:34 PM CDT on September 24, 2017 (GMT -0500)
Olney-Noble

Weather History for KOLY - January, 2014

Change the Weather History Date:

Thursday, January 2, 2014

  Actual Average (KEVV) Record (KEVV)
Temperature  
Mean Temperature 21 °F -  
Max Temperature 32 °F 39 °F 69 °F (2000)
Min Temperature 8 °F 24 °F 0 °F (1928)
Degree Days  
Heating Degree Days 44    
Moisture  
Dew Point 15 °F    
Average Humidity 84    
Maximum Humidity 100    
Minimum Humidity 74    
Precipitation  
Precipitation 0.00 in - - ()
Sea Level Pressure  
Sea Level Pressure 30.18 in    
Wind  
Wind Speed 13 mph (NW)    
Max Wind Speed 23 mph    
Max Gust Speed 31 mph    
Visibility 6 miles    
Events Rain , Snow    
Averages and records for this station are not official NWS values.
T = Trace of Precipitation, MM = Missing Value Source: NWS Daily Summary

Daily Weather History Graph

Daily Weather History Graph

Search for Another Location

Airport or City:

Trip Planner

Search our weather history database for the weather conditions in past years. The results will help you decide how hot, cold, wet, or windy it might be!

Date:

Astronomy

Jan. 02, 2014 Rise Set
Actual Time 7:10 AM CST 4:42 PM CST
Civil Twilight 6:41 AM CST 5:12 PM CST
Nautical Twilight 6:08 AM CST 5:45 PM CST
Astronomical Twilight 5:35 AM CST 6:18 PM CST
Moon 7:53 AM CST (1/2) 6:38 PM CST (1/2)
Length of Visible Light 10h 31m
Length of Day
9h 31m
Waxing Crescent, 3% of the Moon is Illuminated
Jan 2
Waxing Crescent
Jan 7
First Quarter
Jan 15
Full
Jan 23
Last Quarter
Jan 30
New

Hourly Weather History & Observations

Time (CST) Temp. Windchill Dew Point Humidity Pressure Visibility Wind Dir Wind Speed Gust Speed Precip Events Conditions
12:15 AM 32.0 °F - 32.0 °F 100% 29.99 in 7.0 mi Calm Calm - N/A Rain Light Rain
12:35 AM 32.0 °F 24.2 °F 32.0 °F 100% 29.98 in 5.0 mi North 9.2 mph - N/A Rain Light Rain
12:55 AM 32.0 °F 25.6 °F 32.0 °F 100% 29.96 in 3.0 mi North 6.9 mph - N/A Rain Rain
1:15 AM 32.0 °F 23.0 °F 30.2 °F 93% 29.95 in 4.0 mi North 11.5 mph - N/A Rain Light Rain
1:35 AM 30.2 °F 23.4 °F 30.2 °F 100% 29.96 in 2.0 mi North 6.9 mph - N/A Rain Light Freezing Rain
1:55 AM 30.2 °F 22.6 °F 30.2 °F 100% 29.96 in 2.5 mi North 8.1 mph - N/A Rain Light Freezing Rain
2:15 AM 30.2 °F 20.8 °F 28.4 °F 93% 29.96 in 2.5 mi NNW 11.5 mph - N/A   Overcast
2:35 AM 28.4 °F 19.1 °F 28.4 °F 100% 29.96 in 3.0 mi North 10.4 mph - N/A Rain Light Freezing Rain
2:55 AM 28.4 °F 19.1 °F 26.6 °F 93% 29.97 in 2.0 mi NW 10.4 mph - N/A Snow Light Snow
3:15 AM 26.6 °F 14.3 °F 24.8 °F 93% 29.98 in 3.0 mi NW 16.1 mph 20.7 mph N/A Snow Light Snow
3:35 AM 24.8 °F 12.4 °F 23.0 °F 93% 29.99 in 1.2 mi NNW 15.0 mph 21.9 mph N/A Snow Light Snow
3:55 AM 23.0 °F 10.1 °F 21.2 °F 93% 29.99 in 2.5 mi NNW 15.0 mph 19.6 mph N/A Snow Light Snow
4:15 AM 21.2 °F 7.8 °F 17.6 °F 86% 30.00 in 5.0 mi NW 15.0 mph 26.5 mph N/A Snow Light Snow
4:35 AM 21.2 °F 7.3 °F 17.6 °F 86% 30.00 in 3.0 mi NNW 16.1 mph - N/A Snow Light Snow
4:55 AM 19.4 °F 3.6 °F 17.6 °F 93% 30.01 in 1.8 mi NW 19.6 mph 24.2 mph N/A Snow Light Snow
5:15 AM 19.4 °F 5.0 °F 17.6 °F 93% 30.01 in 2.5 mi NNW 16.1 mph 21.9 mph N/A Snow Light Snow
5:35 AM 19.4 °F 4.1 °F 15.8 °F 86% 30.01 in 3.0 mi NNW 18.4 mph 23.0 mph N/A Snow Light Snow
5:55 AM 19.4 °F 3.6 °F 15.8 °F 86% 30.03 in 1.8 mi NNW 19.6 mph 25.3 mph N/A Snow Light Snow
6:15 AM 19.4 °F 6.0 °F 15.8 °F 86% 30.04 in 2.0 mi NW 13.8 mph 25.3 mph N/A Snow Light Snow
6:35 AM 19.4 °F 4.1 °F 14.0 °F 80% 30.04 in 3.0 mi NNW 18.4 mph - N/A Snow Light Snow
6:55 AM 19.4 °F 3.6 °F 14.0 °F 80% 30.04 in 2.0 mi NNW 19.6 mph 25.3 mph N/A Snow Light Snow
7:15 AM 17.6 °F 0.9 °F 14.0 °F 86% 30.05 in 1.2 mi NNW 20.7 mph 29.9 mph N/A Snow Light Snow
7:35 AM 17.6 °F 0.5 °F 14.0 °F 86% 30.06 in 2.0 mi NNW 21.9 mph 31.1 mph N/A Snow Light Snow
7:55 AM 19.4 °F 4.5 °F 14.0 °F 80% 30.08 in 7.0 mi NW 17.3 mph 24.2 mph N/A   Overcast
8:15 AM 19.4 °F 4.5 °F 14.0 °F 80% 30.09 in 10.0 mi NW 17.3 mph 21.9 mph N/A   Overcast
8:35 AM 19.4 °F 3.2 °F 14.0 °F 80% 30.10 in 10.0 mi NW 20.7 mph 25.3 mph N/A   Overcast
8:55 AM 19.4 °F 4.1 °F 14.0 °F 80% 30.11 in 7.0 mi NW 18.4 mph 25.3 mph N/A   Overcast
9:15 AM 19.4 °F 3.6 °F 14.0 °F 80% 30.13 in 4.0 mi NW 19.6 mph 27.6 mph N/A Snow Light Snow
9:35 AM 19.4 °F 3.2 °F 14.0 °F 80% 30.14 in 2.5 mi NW 20.7 mph 26.5 mph N/A Snow Light Snow
9:55 AM 19.4 °F 5.0 °F 14.0 °F 80% 30.14 in 4.0 mi NW 16.1 mph 24.2 mph N/A Snow Light Snow
10:15 AM 19.4 °F 4.1 °F 14.0 °F 80% 30.15 in 5.0 mi NW 18.4 mph 24.2 mph N/A Snow Light Snow
10:35 AM 19.4 °F 2.8 °F 14.0 °F 80% 30.15 in 5.0 mi NW 21.9 mph 28.8 mph N/A Snow Light Snow
10:55 AM 19.4 °F 3.6 °F 14.0 °F 80% 30.15 in 4.0 mi NW 19.6 mph 28.8 mph N/A Snow Light Snow
11:15 AM 19.4 °F 2.8 °F 14.0 °F 80% 30.15 in 4.0 mi NW 21.9 mph 31.1 mph N/A Snow Light Snow
11:35 AM 19.4 °F 3.6 °F 12.2 °F 74% 30.15 in 5.0 mi NW 19.6 mph 26.5 mph N/A   Haze
11:55 AM 19.4 °F 4.5 °F 12.2 °F 74% 30.15 in 7.0 mi NW 17.3 mph 25.3 mph N/A   Overcast
12:15 PM 19.4 °F 2.8 °F 14.0 °F 80% 30.14 in 10.0 mi NW 21.9 mph 26.5 mph N/A   Overcast
12:35 PM 19.4 °F 3.2 °F 14.0 °F 80% 30.15 in 10.0 mi NW 20.7 mph 27.6 mph N/A   Overcast
12:55 PM 19.4 °F 2.8 °F 14.0 °F 80% 30.16 in 7.0 mi NW 21.9 mph 27.6 mph N/A Snow Light Snow
1:15 PM 19.4 °F 2.5 °F 12.2 °F 74% 30.16 in 7.0 mi NW 23.0 mph 27.6 mph N/A   Overcast
1:35 PM 19.4 °F 4.5 °F 12.2 °F 74% 30.17 in 7.0 mi NW 17.3 mph 27.6 mph N/A   Overcast
1:55 PM 21.2 °F 6.0 °F 14.0 °F 74% 30.18 in 7.0 mi NW 19.6 mph 26.5 mph N/A   Overcast
2:15 PM 19.4 °F 4.5 °F 14.0 °F 80% 30.18 in 10.0 mi NW 17.3 mph 26.5 mph N/A   Overcast
2:35 PM 19.4 °F 4.1 °F 14.0 °F 80% 30.20 in 10.0 mi NW 18.4 mph - N/A   Overcast
2:55 PM 19.4 °F 4.1 °F 14.0 °F 80% 30.22 in 10.0 mi NW 18.4 mph 25.3 mph N/A   Overcast
3:15 PM 19.4 °F 4.5 °F 14.0 °F 80% 30.23 in 7.0 mi NW 17.3 mph - N/A Snow Light Snow
3:35 PM 19.4 °F 6.0 °F 14.0 °F 80% 30.25 in 10.0 mi NW 13.8 mph 23.0 mph N/A Snow Light Snow
3:55 PM 19.4 °F 6.0 °F 14.0 °F 80% 30.26 in 3.0 mi NW 13.8 mph 24.2 mph N/A Snow Light Snow
4:15 PM 19.4 °F 6.6 °F 14.0 °F 80% 30.27 in 4.0 mi NW 12.7 mph 20.7 mph N/A Snow Light Snow
4:35 PM 19.4 °F 6.0 °F 14.0 °F 80% 30.28 in 2.5 mi NW 13.8 mph 17.3 mph N/A Snow Light Snow
4:55 PM 19.4 °F 4.5 °F 14.0 °F 80% 30.29 in 5.0 mi NW 17.3 mph 21.9 mph N/A Snow Light Snow
5:15 PM 19.4 °F 5.5 °F 14.0 °F 80% 30.31 in 7.0 mi NW 15.0 mph - N/A Snow Light Snow
5:35 PM 19.4 °F 6.6 °F 14.0 °F 80% 30.33 in 10.0 mi NW 12.7 mph 18.4 mph N/A   Overcast
5:55 PM 17.6 °F 4.3 °F 12.2 °F 79% 30.33 in 10.0 mi NW 12.7 mph - N/A Snow Light Snow
6:15 PM 17.6 °F 4.3 °F 12.2 °F 79% 30.35 in 10.0 mi NW 12.7 mph 21.9 mph N/A   Overcast
6:35 PM 15.8 °F 1.4 °F 10.4 °F 79% 30.37 in 10.0 mi NW 13.8 mph - N/A   Mostly Cloudy
6:55 PM 14.0 °F -0.2 °F 10.4 °F 86% 30.38 in 10.0 mi NW 12.7 mph - N/A   Clear
7:15 PM 14.0 °F 2.0 °F 10.4 °F 86% 30.39 in 10.0 mi NW 9.2 mph - N/A   Clear
7:35 PM 14.0 °F 1.2 °F 10.4 °F 86% 30.39 in 10.0 mi NW 10.4 mph - N/A   Clear
7:55 PM 14.0 °F 2.0 °F 8.6 °F 79% 30.40 in 10.0 mi NW 9.2 mph - N/A   Clear
8:15 PM 14.0 °F 2.9 °F 8.6 °F 79% 30.40 in 10.0 mi NW 8.1 mph - N/A   Clear
8:35 PM 12.2 °F 4.3 °F 8.6 °F 85% 30.40 in 10.0 mi NNW 4.6 mph - N/A   Clear
8:55 PM 12.2 °F 1.7 °F 8.6 °F 85% 30.41 in 10.0 mi NW 6.9 mph - N/A   Clear
9:15 PM 12.2 °F 0.7 °F 8.6 °F 85% 30.42 in 10.0 mi NW 8.1 mph - N/A   Clear
9:35 PM 12.2 °F -1.8 °F 8.6 °F 85% 30.42 in 10.0 mi NW 11.5 mph - N/A   Clear
9:55 PM 12.2 °F -0.2 °F 8.6 °F 85% 30.42 in 10.0 mi NW 9.2 mph - N/A   Clear
10:15 PM 10.4 °F -0.4 °F 6.8 °F 85% 30.42 in 10.0 mi NW 6.9 mph - N/A   Clear
10:35 PM 10.4 °F -2.4 °F 6.8 °F 85% 30.42 in 10.0 mi NW 9.2 mph - N/A   Clear
10:55 PM 10.4 °F -1.5 °F 6.8 °F 85% 30.44 in 10.0 mi NW 8.1 mph - N/A   Clear
11:15 PM 10.4 °F 2.2 °F 5.0 °F 79% 30.44 in 10.0 mi NW 4.6 mph - N/A   Clear
11:35 PM 10.4 °F 0.8 °F 5.0 °F 79% 30.45 in 10.0 mi NW 5.8 mph - N/A   Clear
11:55 PM 8.6 °F 0.1 °F 5.0 °F 85% 30.46 in 10.0 mi NW 4.6 mph - N/A   Clear